Janesville, WI

2:51 PM CDT on August 19, 2017 (GMT -0500)
Rock County

Weather History for KJVL - February, 2013

Change the Weather History Date:

Friday, February 15, 2013

  Actual Average Record
Temperature  
Mean Temperature 24 °F -  
Max Temperature 30 °F 32 °F 53 °F (1999)
Min Temperature 17 °F 17 °F -7 °F (2007)
Degree Days  
Heating Degree Days 42    
Moisture  
Dew Point 11 °F    
Average Humidity 61    
Maximum Humidity 75    
Minimum Humidity 43    
Precipitation  
Precipitation 0.00 in - - ()
Sea Level Pressure  
Sea Level Pressure 30.13 in    
Wind  
Wind Speed 10 mph (NW)    
Max Wind Speed 17 mph    
Max Gust Speed 20 mph    
Visibility 10 miles    
Events      
Averages and records for this station are not official NWS values.
T = Trace of Precipitation, MM = Missing Value Source: NWS Daily Summary

Daily Weather History Graph

Daily Weather History Graph

Search for Another Location

Airport or City:

Trip Planner

Search our weather history database for the weather conditions in past years. The results will help you decide how hot, cold, wet, or windy it might be!

Date:

Astronomy

Feb. 15, 2013 Rise Set
Actual Time 6:52 AM CST 5:28 PM CST
Civil Twilight 6:23 AM CST 5:57 PM CST
Nautical Twilight 5:50 AM CST 6:30 PM CST
Astronomical Twilight 5:18 AM CST 7:03 PM CST
Moon 9:20 AM CST (2/15) 11:38 PM CST (2/15)
Length of Visible Light 11h 33m
Length of Day
10h 35m
Waxing Crescent, 30% of the Moon is Illuminated
Feb 15
Waxing Crescent
Feb 17
First Quarter
Feb 25
Full
Mar 4
Last Quarter
Mar 11
New

Hourly Weather History & Observations

Time (CST) Temp. Windchill Dew Point Humidity Pressure Visibility Wind Dir Wind Speed Gust Speed Precip Events Conditions
12:35 AM 30.2 °F 23.4 °F 23.0 °F 75% 29.99 in 10.0 mi NNW 6.9 mph - N/A   Overcast
12:55 AM 30.2 °F 20.8 °F 23.0 °F 75% 29.99 in 10.0 mi NNW 11.5 mph - N/A   Overcast
1:15 AM 30.2 °F 20.2 °F 21.2 °F 69% 30.00 in 10.0 mi NNW 12.7 mph - N/A   Overcast
1:35 AM 30.2 °F 19.3 °F 19.4 °F 64% 30.01 in 10.0 mi North 15.0 mph 19.6 mph N/A   Overcast
1:55 AM 28.4 °F 18.0 °F 19.4 °F 69% 30.02 in 10.0 mi North 12.7 mph 18.4 mph N/A   Overcast
2:55 AM 28.4 °F 19.1 °F 17.6 °F 64% 30.05 in 10.0 mi North 10.4 mph - N/A   Mostly Cloudy
3:15 AM 26.6 °F 13.8 °F 17.6 °F 69% 30.05 in 10.0 mi NNW 17.3 mph - N/A   Mostly Cloudy
3:35 AM 24.8 °F 14.6 °F 15.8 °F 69% 30.06 in 10.0 mi NW 10.4 mph - N/A   Scattered Clouds
3:55 AM 23.0 °F 11.1 °F 14.0 °F 68% 30.07 in 10.0 mi NW 12.7 mph 18.4 mph N/A   Clear
4:35 AM 23.0 °F 13.1 °F 10.4 °F 59% 30.10 in 10.0 mi NNW 9.2 mph 17.3 mph N/A   Scattered Clouds
7:45 AM 19.4 °F 7.2 °F 10.4 °F 68% 30.15 in 10.0 mi NW 11.5 mph - N/A   Clear
8:45 AM 21.2 °F 9.5 °F 10.4 °F 63% 30.17 in 10.0 mi NW 11.5 mph - N/A   Clear
9:45 AM 23.0 °F 11.7 °F 10.4 °F 59% 30.18 in 10.0 mi NW 11.5 mph - N/A   Clear
10:45 AM 24.8 °F 14.0 °F 10.4 °F 54% 30.18 in 10.0 mi NW 11.5 mph - N/A   Clear
12:45 PM 26.6 °F 16.8 °F 10.4 °F 51% 30.16 in 10.0 mi NW 10.4 mph - N/A   Clear
1:45 PM 28.4 °F 19.1 °F 10.4 °F 47% 30.14 in 10.0 mi West 10.4 mph 17.3 mph N/A   Clear
3:45 PM 28.4 °F 19.1 °F 8.6 °F 43% 30.14 in 10.0 mi WNW 10.4 mph - N/A   Mostly Cloudy
4:45 PM 26.6 °F 15.7 °F 8.6 °F 47% 30.15 in 10.0 mi WNW 12.7 mph - N/A   Partly Cloudy
5:45 PM 24.8 °F 14.0 °F 10.4 °F 54% 30.16 in 10.0 mi WNW 11.5 mph - N/A   Clear
6:45 PM 23.0 °F 11.1 °F 8.6 °F 54% 30.17 in 10.0 mi WNW 12.7 mph - N/A   Clear
7:45 PM 21.2 °F 10.1 °F 8.6 °F 58% 30.17 in 10.0 mi WNW 10.4 mph - N/A   Clear
8:15 PM 21.2 °F 10.1 °F 10.4 °F 63% 30.17 in 10.0 mi WNW 10.4 mph - N/A   Clear
8:35 PM 21.2 °F 12.6 °F 8.6 °F 58% 30.18 in 10.0 mi WNW 6.9 mph - N/A   Clear
8:45 PM 19.4 °F 10.4 °F 8.6 °F 63% 30.18 in 10.0 mi NW 6.9 mph - N/A   Clear
8:55 PM 19.4 °F 11.5 °F 10.4 °F 68% 30.18 in 10.0 mi NW 5.8 mph - N/A   Clear
9:15 PM 19.4 °F 11.5 °F 8.6 °F 63% 30.18 in 10.0 mi NW 5.8 mph - N/A   Clear
9:35 PM 19.4 °F 10.4 °F 8.6 °F 63% 30.18 in 10.0 mi NW 6.9 mph - N/A   Clear
9:55 PM 19.4 °F 9.5 °F 8.6 °F 63% 30.18 in 10.0 mi NW 8.1 mph - N/A   Clear
10:15 PM 19.4 °F 6.6 °F 6.8 °F 58% 30.18 in 10.0 mi NW 12.7 mph - N/A   Clear
10:35 PM 19.4 °F 7.9 °F 6.8 °F 58% 30.18 in 10.0 mi NW 10.4 mph - N/A   Clear
10:55 PM 17.6 °F 5.7 °F 6.8 °F 63% 30.18 in 10.0 mi NNW 10.4 mph 16.1 mph N/A   Clear
11:15 PM 17.6 °F 4.3 °F 5.0 °F 58% 30.18 in 10.0 mi NNW 12.7 mph - N/A   Clear
11:35 PM 17.6 °F 7.3 °F 5.0 °F 58% 30.18 in 10.0 mi NNW 8.1 mph - N/A   Clear
11:55 PM 17.6 °F 8.2 °F 5.0 °F 58% 30.18 in 10.0 mi NNW 6.9 mph - N/A   Clear